Location: Borz?cin
(51.1714°N, 19.6030°E)
Time: 22:12:03
(UTC+00:00)

USA 229 - Pass Details

Date: 19 May 2025
Orbit: 872 x 1339 km, 63.4° (Epoch: 10 June)

Event Time Altitude Azimuth Distance (km) Brightness Sun altitude
Exits shadow 23:20:52 18° 235° (SW) 2,133 4.9 -18.2°
Maximum altitude 23:25:36 74° 318° (NW) 1,047 3.7 -18.1°
Drops below altitude 10° 23:32:33 10° 44° (NE) 2,957 6.9 -17.8°
Sets 23:35:24 0° 46° (NE) 3,991 7.7 -17.7°
